• In Deutschland
  • Länderverzeichnis
  • Für 7 Tage
  • Wassertemperatur
  • Satellitenkarten
  • Wetterkarte
  • Widgets
  • user-avatar
    Anmelden

    Stündliche Wetter Fier

    Heute, 20 September, Mittwoch

    Zeit Temperatur Niederschläge Wind Luftdruck Luftfeuchtigkeit
    00:00 +20°C° 0 mm 3 m/S 756 mmHg 72%
    01:00 +20°C° 0 mm 3 m/S 756 mmHg 71%
    02:00 +20°C° 0,1 mm 3 m/S 756 mmHg 74%
    03:00 +19°C° 0,1 mm 3 m/S 756 mmHg 77%
    04:00 +19°C° 0,1 mm 4 m/S 756 mmHg 80%
    05:00 +20°C° 0,4 mm 3 m/S 756 mmHg 79%
    06:00 +20°C° 0,4 mm 3 m/S 756 mmHg 78%
    07:00 +21°C° 0 mm 2 m/S 756 mmHg 76%
    08:00 +23°C° 0,1 mm 2 m/S 756 mmHg 68%
    09:00 +24°C° 0,1 mm 2 m/S 756 mmHg 61%
    10:00 +25°C° 0,1 mm 2 m/S 756 mmHg 54%
    11:00 +26°C° 0 mm 3 m/S 756 mmHg 49%
    12:00 +26°C° 0 mm 3 m/S 756 mmHg 43%
    13:00 +26°C° 0 mm 5 m/S 756 mmHg 41%
    14:00 +26°C° 0,2 mm 5 m/S 756 mmHg 43%
    15:00 +25°C° 0,2 mm 5 m/S 756 mmHg 45%
    16:00 +24°C° 0,2 mm 6 m/S 756 mmHg 46%
    17:00 +22°C° 0,5 mm 5 m/S 757 mmHg 57%
    18:00 +20°C° 0,5 mm 4 m/S 757 mmHg 67%
    19:00 +18°C° 0,5 mm 3 m/S 757 mmHg 77%
    20:00 +18°C° 0,5 mm 3 m/S 758 mmHg 78%
    21:00 +17°C° 0,5 mm 3 m/S 758 mmHg 80%
    22:00 +17°C° 0,5 mm 3 m/S 759 mmHg 81%
    23:00 +17°C° 0,5 mm 3 m/S 759 mmHg 83%

    Morgen, 21 September, Donnerstag

    Zeit Temperatur Niederschläge Wind Luftdruck Luftfeuchtigkeit
    00:00 +16°C° 0,5 mm 3 m/S 759 mmHg 86%
    01:00 +15°C° 0,5 mm 4 m/S 759 mmHg 88%
    02:00 +15°C° 0,6 mm 4 m/S 759 mmHg 88%
    03:00 +15°C° 0,6 mm 4 m/S 759 mmHg 88%
    04:00 +15°C° 0,6 mm 4 m/S 759 mmHg 88%
    05:00 +15°C° 0,4 mm 4 m/S 759 mmHg 85%
    06:00 +17°C° 0,4 mm 4 m/S 759 mmHg 82%
    07:00 +18°C° 0,4 mm 4 m/S 759 mmHg 78%
    08:00 +19°C° 0,2 mm 4 m/S 759 mmHg 72%
    09:00 +19°C° 0,2 mm 4 m/S 759 mmHg 66%
    10:00 +20°C° 0,2 mm 5 m/S 760 mmHg 60%
    11:00 +21°C° 0,2 mm 5 m/S 760 mmHg 58%
    12:00 +21°C° 0,2 mm 5 m/S 760 mmHg 55%
    13:00 +22°C° 0,2 mm 5 m/S 760 mmHg 53%
    14:00 +22°C° 0,2 mm 6 m/S 760 mmHg 54%
    15:00 +21°C° 0,2 mm 6 m/S 760 mmHg 55%
    16:00 +21°C° 0,2 mm 6 m/S 760 mmHg 56%
    17:00 +20°C° 0,1 mm 5 m/S 760 mmHg 64%
    18:00 +17°C° 0,1 mm 5 m/S 760 mmHg 71%
    19:00 +17°C° 0,1 mm 4 m/S 761 mmHg 79%
    20:00 +15°C° 0,1 mm 4 m/S 761 mmHg 80%
    21:00 +16°C° 0,1 mm 3 m/S 762 mmHg 82%
    22:00 +16°C° 0,1 mm 3 m/S 762 mmHg 83%
    23:00 +14°C° 0 mm 3 m/S 762 mmHg 83%

    übermorgen, 22 September, Freitag

    Zeit Temperatur Niederschläge Wind Luftdruck Luftfeuchtigkeit
    00:00 +14°C° 0 mm 3 m/S 762 mmHg 82%
    01:00 +14°C° 0 mm 4 m/S 762 mmHg 82%
    02:00 +14°C° 0 mm 4 m/S 762 mmHg 82%
    03:00 +14°C° 0 mm 3 m/S 762 mmHg 81%
    04:00 +14°C° 0 mm 3 m/S 762 mmHg 81%
    05:00 +14°C° 0 mm 3 m/S 763 mmHg 78%
    06:00 +16°C° 0 mm 3 m/S 763 mmHg 74%
    07:00 +17°C° 0 mm 3 m/S 763 mmHg 70%
    08:00 +19°C° 0 mm 3 m/S 763 mmHg 60%
    09:00 +20°C° 0 mm 3 m/S 763 mmHg 50%
    10:00 +22°C° 0 mm 4 m/S 763 mmHg 40%
    11:00 +22°C° 0 mm 4 m/S 763 mmHg 39%
    12:00 +23°C° 0 mm 5 m/S 763 mmHg 38%
    13:00 +25°C° 0 mm 5 m/S 763 mmHg 36%
    14:00 +23°C° 0 mm 5 m/S 763 mmHg 39%
    15:00 +22°C° 0 mm 5 m/S 763 mmHg 41%
    16:00 +22°C° 0 mm 5 m/S 763 mmHg 44%
    17:00 +20°C° 0 mm 4 m/S 763 mmHg 51%
    18:00 +18°C° 0 mm 4 m/S 764 mmHg 58%
    19:00 +17°C° 0 mm 3 m/S 764 mmHg 64%
    20:00 +16°C° 0 mm 3 m/S 764 mmHg 66%
    21:00 +16°C° 0 mm 3 m/S 764 mmHg 67%
    22:00 +16°C° 0 mm 2 m/S 765 mmHg 69%
    23:00 +15°C° 0 mm 2 m/S 765 mmHg 69%

    23 September, Samstag

    Zeit Temperatur Niederschläge Wind Luftdruck Luftfeuchtigkeit
    00:00 +15°C° 0 mm 2 m/S 765 mmHg 68%
    01:00 +15°C° 0 mm 2 m/S 765 mmHg 68%
    02:00 +15°C° 0 mm 2 m/S 765 mmHg 68%
    03:00 +15°C° 0 mm 2 m/S 764 mmHg 68%
    04:00 +15°C° 0 mm 2 m/S 764 mmHg 67%
    05:00 +16°C° 0 mm 2 m/S 764 mmHg 64%
    06:00 +17°C° 0 mm 2 m/S 764 mmHg 60%
    07:00 +18°C° 0 mm 2 m/S 764 mmHg 57%
    08:00 +20°C° 0 mm 2 m/S 764 mmHg 50%
    09:00 +23°C° 0 mm 2 m/S 764 mmHg 43%
    10:00 +25°C° 0 mm 2 m/S 764 mmHg 36%
    11:00 +26°C° 0 mm 2 m/S 764 mmHg 34%
    12:00 +26°C° 0 mm 2 m/S 763 mmHg 33%
    13:00 +27°C° 0 mm 3 m/S 763 mmHg 31%
    14:00 +26°C° 0 mm 3 m/S 763 mmHg 34%
    15:00 +26°C° 0 mm 3 m/S 763 mmHg 37%
    16:00 +25°C° 0 mm 3 m/S 763 mmHg 40%
    17:00 +22°C° 0 mm 3 m/S 763 mmHg 46%
    18:00 +20°C° 0 mm 2 m/S 763 mmHg 53%
    19:00 +18°C° 0 mm 2 m/S 763 mmHg 60%
    20:00 +18°C° 0 mm 2 m/S 763 mmHg 61%
    21:00 +19°C° 0 mm 1 m/S 763 mmHg 61%
    22:00 +19°C° 0 mm 1 m/S 763 mmHg 61%
    23:00 +18°C° 0 mm 1 m/S 763 mmHg 61%

    24 September, Sonntag

    Zeit Temperatur Niederschläge Wind Luftdruck Luftfeuchtigkeit
    00:00 +18°C° 0 mm 1 m/S 763 mmHg 60%
    01:00 +18°C° 0 mm 1 m/S 763 mmHg 60%
    02:00 +18°C° 0 mm 1 m/S 763 mmHg 60%
    03:00 +18°C° 0 mm 1 m/S 763 mmHg 59%
    04:00 +18°C° 0 mm 1 m/S 762 mmHg 59%
    05:00 +18°C° 0 mm 1 m/S 762 mmHg 57%
    06:00 +19°C° 0 mm 1 m/S 763 mmHg 54%
    07:00 +20°C° 0 mm 1 m/S 763 mmHg 52%
    08:00 +22°C° 0 mm 1 m/S 763 mmHg 46%
    09:00 +24°C° 0 mm 1 m/S 762 mmHg 41%
    10:00 +26°C° 0 mm 1 m/S 762 mmHg 35%
    11:00 +27°C° 0 mm 1 m/S 762 mmHg 33%
    12:00 +28°C° 0 mm 2 m/S 762 mmHg 32%
    13:00 +28°C° 0 mm 2 m/S 761 mmHg 30%
    14:00 +28°C° 0 mm 3 m/S 761 mmHg 33%
    15:00 +27°C° 0 mm 3 m/S 761 mmHg 36%
    16:00 +26°C° 0 mm 3 m/S 761 mmHg 39%
    17:00 +24°C° 0 mm 3 m/S 761 mmHg 47%
    18:00 +21°C° 0 mm 2 m/S 761 mmHg 56%
    19:00 +19°C° 0 mm 2 m/S 762 mmHg 64%
    20:00 +19°C° 0 mm 2 m/S 762 mmHg 65%
    21:00 +20°C° 0 mm 1 m/S 762 mmHg 66%
    22:00 +19°C° 0 mm 1 m/S 762 mmHg 67%
    23:00 +19°C° 0 mm 1 m/S 762 mmHg 67%

    25 September, Montag

    Zeit Temperatur Niederschläge Wind Luftdruck Luftfeuchtigkeit
    00:00 +19°C° 0 mm 1 m/S 761 mmHg 66%
    01:00 +19°C° 0 mm 1 m/S 761 mmHg 65%
    02:00 +19°C° 0 mm 1 m/S 761 mmHg 65%
    03:00 +18°C° 0 mm 1 m/S 761 mmHg 65%
    04:00 +17°C° 0 mm 2 m/S 761 mmHg 64%
    05:00 +18°C° 0 mm 2 m/S 761 mmHg 61%
    06:00 +19°C° 0 mm 2 m/S 761 mmHg 58%
    07:00 +20°C° 0 mm 2 m/S 761 mmHg 55%
    08:00 +23°C° 0 mm 1 m/S 761 mmHg 49%
    09:00 +25°C° 0 mm 1 m/S 761 mmHg 43%
    10:00 +27°C° 0 mm 1 m/S 761 mmHg 37%
    11:00 +27°C° 0 mm 2 m/S 761 mmHg 37%
    12:00 +28°C° 0 mm 2 m/S 760 mmHg 36%
    13:00 +28°C° 0 mm 3 m/S 760 mmHg 35%
    14:00 +27°C° 0,1 mm 3 m/S 760 mmHg 40%
    15:00 +26°C° 0,1 mm 3 m/S 760 mmHg 45%
    16:00 +25°C° 0,1 mm 4 m/S 760 mmHg 49%
    17:00 +24°C° 0,1 mm 3 m/S 760 mmHg 56%
    18:00 +22°C° 0,1 mm 3 m/S 761 mmHg 63%
    19:00 +20°C° 0,1 mm 2 m/S 761 mmHg 70%
    20:00 +20°C° 0 mm 2 m/S 761 mmHg 71%
    21:00 +20°C° 0 mm 2 m/S 761 mmHg 71%
    22:00 +19°C° 0 mm 2 m/S 761 mmHg 72%
    23:00 +19°C° 0 mm 2 m/S 761 mmHg 72%
    Mehr zeigen